This demonstration page uses our WeatherBlox Daily Observations layout. Learn more.

Left ArrowRight Arrow

Hourly Observations for April 6, 2021

Temp ( °F °C ) Dew Point ( °F °C ) Humidity (%) Winds ( mph kmh ) Pressure ( in mb ) Visibility ( mi km ) Precip ( " mm )
12:59 am 00:59 Cloudy 62 16.7 39 3.9 43 43 SW 6 9 30.00 1016 10 16 0.00 0.00
1:59 am 01:59 Mostly Cloudy 61 16.1 39 3.9 44 44 SSW 8 13 29.98 1015 10 16 0.00 0.00
2:59 am 02:59 Mostly Cloudy 61 16.1 39 3.9 44 44 SW 7 11 29.96 1015 10 16 0.00 0.00
3:59 am 03:59 Mostly Cloudy 59 15 38 3.3 46 46 SSW 6 9 29.96 1014 10 16 0.00 0.00
4:59 am 04:59 Mostly Cloudy 59 15 39 3.9 48 48 SW 8 13 29.95 1014 10 16 0.00 0.00
5:59 am 05:59 Clear 57 13.9 40 4.4 53 53 WSW 6 9 29.96 1015 10 16 0.00 0.00
6:59 am 06:59 Mostly Sunny 56 13.3 41 5 57 57 WSW 7 11 29.98 1015 9 14 0.00 0.00
7:59 am 07:59 Sunny 58 14.4 42 5.6 56 56 WNW 6 9 30.00 1016 9 14 0.00 0.00
8:59 am 08:59 Sunny 61 16.1 41 5 48 48 NNW 6 9 30.01 1016 10 16 0.00 0.00
9:59 am 09:59 Sunny 61 16.1 45 7.2 56 56 ENE 12 19 30.04 1017 10 16 0.00 0.00
10:59 am 10:59 Sunny 62 16.7 36 2.2 38 38 ENE 15 24 30.06 1018 10 16 0.00 0.00
11:59 am 11:59 Sunny 62 16.7 34 1.1 35 35 ENE 12 19 30.06 1018 10 16 0.00 0.00
12:59 pm 12:59 Sunny 61 16.1 34 1.1 36 36 E 12 19 30.04 1017 10 16 0.00 0.00
1:59 pm 13:59 Sunny 64 17.8 29 -1.7 27 27 ENE 10 17 30.03 1017 10 16 0.00 0.00
2:59 pm 14:59 Sunny 65 18.3 23 -5 20 20 ENE 12 19 30.01 1016 10 16 0.00 0.00
3:59 pm 15:59 Sunny 66 18.9 27 -2.8 23 23 ENE 9 15 29.98 1015 10 16 0.00 0.00
4:59 pm 16:59 Mostly Sunny 67 19.4 32 0 27 27 E 7 11 29.98 1015 10 16 0.00 0.00
5:59 pm 17:59 Mostly Sunny 67 19.4 34 1.1 30 30 ENE 7 11 29.97 1015 10 16 0.00 0.00
6:59 pm 18:59 Mostly Sunny 65 18.3 29 -1.7 26 26 SE 8 13 29.96 1015 10 16 0.00 0.00
7:59 pm 19:59 Partly Cloudy 61 16.1 26 -3.3 26 26 SE 5 7 29.97 1015 10 16 0.00 0.00
8:59 pm 20:59 Mostly Clear 59 15 27 -2.8 29 29 Calm 29.99 1016 10 16 0.00 0.00
9:59 pm 21:59 Mostly Clear 57 13.9 29 -1.7 34 34 S 3 6 30.01 1016 10 16 0.00 0.00
10:59 pm 22:59 Mostly Clear 57 13.9 28 -2.2 33 33 S 3 6 30.01 1016 10 16 0.00 0.00
11:59 pm 23:59 Partly Cloudy 54 12.2 30 -1.1 40 40 SSE 5 7 30.01 1016 10 16 0.00 0.00

Powered by AerisWeather